Time,TemperatureF,DewpointF,PressureIn,WindDirection,WindDirectionDegrees,WindSpeedMPH,WindSpeedGustMPH,Humidity,HourlyPrecipIn,Conditions,Clouds,dailyrainin,SoftwareType,DateUTC
2013-10-05 00:22:00,27.0,-99.9,-100.00,North,-999,-999.0,-999.0,-999,0.00,,,0.09,,2013-10-05 06:22:00,
2013-10-05 00:32:00,27.0,-99.9,-100.00,North,-999,-999.0,-999.0,-999,0.00,,,0.09,,2013-10-05 06:32:00,
2013-10-05 00:43:00,27.0,-99.9,-100.00,North,-999,-999.0,-999.0,-999,0.00,,,0.09,,2013-10-05 06:43:00,
2013-10-05 01:22:00,26.0,-99.9,-100.00,North,-999,-999.0,-999.0,-999,0.00,,,0.07,,2013-10-05 07:22:00,
2013-10-05 01:32:00,26.0,-99.9,-100.00,North,-999,-999.0,-999.0,-999,0.00,,,0.07,,2013-10-05 07:32:00,
2013-10-05 01:42:00,26.0,-99.9,-100.00,North,-999,-999.0,-999.0,-999,0.00,,,0.07,,2013-10-05 07:42:00,
2013-10-05 02:23:00,25.0,-99.9,-100.00,North,-999,-999.0,-999.0,-999,0.00,,,0.06,,2013-10-05 08:23:00,
2013-10-05 02:32:00,25.0,-99.9,-100.00,North,-999,-999.0,-999.0,-999,0.00,,,0.06,,2013-10-05 08:32:00,
2013-10-05 02:42:00,25.0,-99.9,-100.00,North,-999,-999.0,-999.0,-999,0.00,,,0.06,,2013-10-05 08:42:00,
2013-10-05 03:22:00,24.0,-99.9,-100.00,North,-999,-999.0,-999.0,-999,0.00,,,0.02,,2013-10-05 09:22:00,
2013-10-05 03:34:00,24.0,-99.9,-100.00,North,-999,-999.0,-999.0,-999,0.00,,,0.02,,2013-10-05 09:34:00,
2013-10-05 03:43:00,24.0,-99.9,-100.00,North,-999,-999.0,-999.0,-999,0.00,,,0.02,,2013-10-05 09:43:00,
2013-10-05 04:23:00,23.0,-99.9,-100.00,North,-999,-999.0,-999.0,-999,0.00,,,0.01,,2013-10-05 10:23:00,
2013-10-05 04:32:00,23.0,-99.9,-100.00,North,-999,-999.0,-999.0,-999,0.00,,,0.01,,2013-10-05 10:32:00,
2013-10-05 04:43:00,23.0,-99.9,-100.00,North,-999,-999.0,-999.0,-999,0.00,,,0.01,,2013-10-05 10:43:00,
2013-10-05 05:22:00,22.0,-99.9,-100.00,North,-999,-999.0,-999.0,-999,0.00,,,0.00,,2013-10-05 11:22:00,
2013-10-05 05:33:00,22.0,-99.9,-100.00,North,-999,-999.0,-999.0,-999,0.00,,,0.00,,2013-10-05 11:33:00,
2013-10-05 05:43:00,22.0,-99.9,-100.00,North,-999,-999.0,-999.0,-999,0.00,,,0.00,,2013-10-05 11:43:00,
2013-10-05 06:23:00,22.0,-99.9,-100.00,North,-999,-999.0,-999.0,-999,0.00,,,0.00,,2013-10-05 12:23:00,
2013-10-05 06:32:00,22.0,-99.9,-100.00,North,-999,-999.0,-999.0,-999,0.00,,,0.00,,2013-10-05 12:32:00,
2013-10-05 06:42:00,22.0,-99.9,-100.00,North,-999,-999.0,-999.0,-999,0.00,,,0.00,,2013-10-05 12:42:00,
2013-10-05 07:22:00,20.0,-99.9,-100.00,North,-999,-999.0,-999.0,-999,0.00,,,0.00,,2013-10-05 13:22:00,
2013-10-05 07:32:00,20.0,-99.9,-100.00,North,-999,-999.0,-999.0,-999,0.00,,,0.00,,2013-10-05 13:32:00,
2013-10-05 07:42:00,20.0,-99.9,-100.00,North,-999,-999.0,-999.0,-999,0.00,,,0.00,,2013-10-05 13:42:00,
2013-10-05 08:22:00,20.0,-99.9,-100.00,North,-999,-999.0,-999.0,-999,0.00,,,0.00,,2013-10-05 14:22:00,
2013-10-05 08:32:00,20.0,-99.9,-100.00,North,-999,-999.0,-999.0,-999,0.00,,,0.00,,2013-10-05 14:32:00,
2013-10-05 08:42:00,20.0,-99.9,-100.00,North,-999,-999.0,-999.0,-999,0.00,,,0.00,,2013-10-05 14:42:00,
2013-10-05 09:22:00,23.0,-99.9,-100.00,North,-999,-999.0,-999.0,-999,0.00,,,0.00,,2013-10-05 15:22:00,
2013-10-05 09:33:00,23.0,-99.9,-100.00,North,-999,-999.0,-999.0,-999,0.00,,,0.00,,2013-10-05 15:33:00,
2013-10-05 09:44:00,23.0,-99.9,-100.00,North,-999,-999.0,-999.0,-999,0.00,,,0.00,,2013-10-05 15:44:00,
2013-10-05 10:24:00,30.0,-99.9,-100.00,North,-999,-999.0,-999.0,-999,0.00,,,-99.99,,2013-10-05 16:24:00,
2013-10-05 10:33:00,30.0,-99.9,-100.00,North,-999,-999.0,-999.0,-999,0.00,,,-99.99,,2013-10-05 16:33:00,
2013-10-05 10:43:00,30.0,-99.9,-100.00,North,-999,-999.0,-999.0,-999,0.00,,,-99.99,,2013-10-05 16:43:00,
2013-10-05 11:22:00,32.0,-99.9,-100.00,North,-999,-999.0,-999.0,-999,0.00,,,0.00,,2013-10-05 17:22:00,
2013-10-05 11:33:00,32.0,-99.9,-100.00,North,-999,-999.0,-999.0,-999,0.00,,,0.00,,2013-10-05 17:33:00,
2013-10-05 11:43:00,32.0,-99.9,-100.00,North,-999,-999.0,-999.0,-999,0.00,,,0.00,,2013-10-05 17:43:00,
2013-10-05 12:22:00,35.0,-99.9,-100.00,North,-999,-999.0,-999.0,-999,0.00,,,0.00,,2013-10-05 18:22:00,
2013-10-05 12:32:00,35.0,-99.9,-100.00,North,-999,-999.0,-999.0,-999,0.00,,,0.00,,2013-10-05 18:32:00,
2013-10-05 12:42:00,35.0,-99.9,-100.00,North,-999,-999.0,-999.0,-999,0.00,,,0.00,,2013-10-05 18:42:00,
2013-10-05 13:22:00,40.0,-99.9,-100.00,North,-999,-999.0,-999.0,-999,0.00,,,0.00,,2013-10-05 19:22:00,
2013-10-05 13:32:00,40.0,-99.9,-100.00,North,-999,-999.0,-999.0,-999,0.00,,,0.00,,2013-10-05 19:32:00,
2013-10-05 13:42:00,40.0,-99.9,-100.00,North,-999,-999.0,-999.0,-999,0.00,,,0.00,,2013-10-05 19:42:00,
2013-10-05 14:22:00,42.0,-99.9,-100.00,North,-999,-999.0,-999.0,-999,0.00,,,-99.99,,2013-10-05 20:22:00,
2013-10-05 14:32:00,42.0,-99.9,-100.00,North,-999,-999.0,-999.0,-999,0.00,,,-99.99,,2013-10-05 20:32:00,
2013-10-05 14:42:00,42.0,-99.9,-100.00,North,-999,-999.0,-999.0,-999,0.00,,,-99.99,,2013-10-05 20:42:00,
2013-10-05 15:22:00,43.0,-99.9,-100.00,North,-999,-999.0,-999.0,-999,0.00,,,0.00,,2013-10-05 21:22:00,
2013-10-05 15:33:00,43.0,-99.9,-100.00,North,-999,-999.0,-999.0,-999,0.00,,,0.00,,2013-10-05 21:33:00,
2013-10-05 15:44:00,43.0,-99.9,-100.00,North,-999,-999.0,-999.0,-999,0.00,,,0.00,,2013-10-05 21:44:00,
2013-10-05 16:24:00,46.0,-99.9,-100.00,North,-999,-999.0,-999.0,-999,0.00,,,0.00,,2013-10-05 22:24:00,
2013-10-05 16:33:00,46.0,-99.9,-100.00,North,-999,-999.0,-999.0,-999,0.00,,,0.00,,2013-10-05 22:33:00,
2013-10-05 16:43:00,46.0,-99.9,-100.00,North,-999,-999.0,-999.0,-999,0.00,,,0.00,,2013-10-05 22:43:00,
2013-10-05 17:22:00,49.0,-99.9,-100.00,North,-999,-999.0,-999.0,-999,0.00,,,0.00,,2013-10-05 23:22:00,
2013-10-05 17:34:00,49.0,-99.9,-100.00,North,-999,-999.0,-999.0,-999,0.00,,,0.00,,2013-10-05 23:34:00,
2013-10-05 17:43:00,49.0,-99.9,-100.00,North,-999,-999.0,-999.0,-999,0.00,,,0.00,,2013-10-05 23:43:00,
2013-10-05 18:23:00,42.0,-99.9,-100.00,North,-999,-999.0,-999.0,-999,0.00,,,0.00,,2013-10-06 00:23:00,
2013-10-05 18:32:00,42.0,-99.9,-100.00,North,-999,-999.0,-999.0,-999,0.00,,,0.00,,2013-10-06 00:32:00,
2013-10-05 18:43:00,42.0,-99.9,-100.00,North,-999,-999.0,-999.0,-999,0.00,,,0.00,,2013-10-06 00:43:00,
2013-10-05 19:42:00,34.0,-99.9,-100.00,North,-999,-999.0,-999.0,-999,0.00,,,-99.99,,2013-10-06 01:42:00,
2013-10-05 20:22:00,34.0,-99.9,-100.00,North,-999,-999.0,-999.0,-999,0.00,,,0.00,,2013-10-06 02:22:00,
2013-10-05 20:32:00,34.0,-99.9,-100.00,North,-999,-999.0,-999.0,-999,0.00,,,0.00,,2013-10-06 02:32:00,
2013-10-05 20:42:00,34.0,-99.9,-100.00,North,-999,-999.0,-999.0,-999,0.00,,,0.00,,2013-10-06 02:42:00,
2013-10-05 20:45:00,33.0,-99.9,-100.00,North,-999,-999.0,-999.0,-999,0.00,,,0.00,,2013-10-06 02:45:00,
2013-10-05 21:22:00,33.0,-99.9,-100.00,North,-999,-999.0,-999.0,-999,0.00,,,0.00,,2013-10-06 03:22:00,
2013-10-05 21:34:00,33.0,-99.9,-100.00,North,-999,-999.0,-999.0,-999,0.00,,,0.00,,2013-10-06 03:34:00,
2013-10-05 22:24:00,32.0,-99.9,-100.00,North,-999,-999.0,-999.0,-999,0.00,,,0.00,,2013-10-06 04:24:00,
2013-10-05 22:34:00,32.0,-99.9,-100.00,North,-999,-999.0,-999.0,-999,0.00,,,0.00,,2013-10-06 04:34:00,
2013-10-05 22:44:00,32.0,-99.9,-100.00,North,-999,-999.0,-999.0,-999,0.00,,,0.00,,2013-10-06 04:44:00,
2013-10-05 23:23:00,31.0,-99.9,-100.00,North,-999,-999.0,-999.0,-999,0.00,,,0.00,,2013-10-06 05:23:00,
2013-10-05 23:34:00,31.0,-99.9,-100.00,North,-999,-999.0,-999.0,-999,0.00,,,0.00,,2013-10-06 05:34:00,
2013-10-05 23:43:00,31.0,-99.9,-100.00,North,-999,-999.0,-999.0,-999,0.00,,,0.00,,2013-10-06 05:43:00,